Date String (YYYY-MM-DD hh:mm:ss) UTC,Instrument flags,absolute air pressure of the measurement (hPa),sample flow rate (lpm),inlet stack bypass flow (lpm),air temperature of the measurement (°C),ambient temperature measured by the external sensor (°C),aerosol sample conditioner tube jacket temperature (°C),OPC LED temperature (°C),internal box temperature (°C),relative humidity of the measurement (%),span deviation,mass concentration of particles derived from Lorenz-Mie calculation of OPC scattering (μg/m³),mass concentration of particles derived from Lorenz-Mie calculation of OPC scattering (μg/m³),mass concentration of particles derived from Lorenz-Mie calculation of OPC scattering (μg/m³)
DateTimeUTC,F1_M11,P_M11,Q1_M11,Q2_M11,T1_M11,T2_M11,T3_M11,T4_M11,T5_M11,U1_M11,ZSPAN_M11,X0_M11,X2_M11,X1_M11
2024-06-16 15:00:00,SystemResetWarning,0825.2,5.00,000.00,029.5,028.4,000.0,038.0,031.2,022.1,0003.8,0018.91,0008.04,0007.03
2024-06-16 15:01:00,SystemResetWarning,0825.3,5.00,000.00,029.6,028.6,000.0,038.0,031.3,023.1,0004.2,0018.76,0008.06,0007.05
2024-06-16 15:02:00,SystemResetWarning,0825.3,4.99,000.00,029.6,028.8,000.0,037.9,031.4,024.1,0004.1,0018.62,0008.10,0007.09
2024-06-16 15:03:00,SystemResetWarning,0825.2,5.01,000.00,029.7,029.0,000.0,038.0,031.4,024.0,0004.2,0018.76,0008.21,0007.15
2024-06-16 15:04:00,SystemResetWarning,0825.2,5.00,000.00,029.7,029.1,000.0,038.0,031.5,023.3,0004.4,0019.19,0008.34,0007.22
2024-06-16 15:05:00,SystemResetWarning,0825.2,5.01,000.00,029.8,029.2,000.0,038.0,031.6,023.3,0004.5,0020.12,0008.46,0007.32
2024-06-16 15:06:00,SystemResetWarning,0825.3,5.00,000.00,029.9,029.3,000.0,038.0,031.7,022.6,0004.3,0019.92,0008.58,0007.41
2024-06-16 15:07:00,SystemResetWarning,0825.3,4.99,000.00,029.9,029.4,000.0,038.0,031.7,021.1,0004.1,0020.30,0008.66,0007.47
2024-06-16 15:08:00,SystemResetWarning,0825.3,4.99,000.00,030.0,029.5,000.0,038.1,031.8,020.8,0003.9,0020.64,0008.56,0007.43
2024-06-16 15:09:00,SystemResetWarning,0825.3,5.01,000.00,030.0,029.6,000.0,038.1,031.8,021.7,0004.0,0021.60,0008.50,0007.35
2024-06-16 15:10:00,SystemResetWarning,0825.3,5.01,000.00,030.1,029.6,000.0,038.2,031.8,022.3,0004.4,0023.16,0008.51,0007.29
2024-06-16 15:11:00,SystemResetWarning,0825.3,4.98,000.00,030.0,028.3,000.0,038.3,031.2,023.2,0004.3,0023.86,0008.46,0007.19
2024-06-16 15:12:00,SystemResetWarning,0825.3,5.01,000.00,029.6,026.2,000.0,038.3,030.2,024.0,0004.1,0023.62,0008.32,0007.05
2024-06-16 15:13:00,SystemResetWarning,0825.3,5.02,000.00,029.3,026.1,000.0,038.2,030.1,025.0,0003.9,0024.20,0008.17,0006.86
2024-06-16 15:14:00,SystemResetWarning,0825.3,5.00,000.00,029.2,026.6,000.0,038.1,030.3,025.5,0003.8,0024.38,0008.00,0006.66
2024-06-16 15:15:00,SystemResetWarning,0825.3,5.00,000.00,029.2,027.0,000.0,038.0,030.5,025.7,0003.6,0024.79,0007.85,0006.43
2024-06-16 15:16:00,SystemResetWarning,0825.3,5.00,000.00,029.2,027.4,000.0,037.9,030.7,025.7,0003.5,0024.72,0007.68,0006.17
2024-06-16 15:17:00,SystemResetWarning,0825.3,4.99,000.00,029.3,027.8,000.0,037.9,030.8,025.3,0003.4,0023.95,0007.43,0005.89
2024-06-16 15:18:00,SystemResetWarning,0825.3,5.00,000.00,029.3,028.1,000.0,037.8,031.0,025.4,0003.6,0022.83,0007.21,0005.64
2024-06-16 15:19:00,SystemResetWarning,0825.3,5.00,000.00,029.4,028.3,000.0,037.8,031.1,025.5,0003.8,0023.14,0007.18,0005.51
2024-06-16 15:20:00,SystemResetWarning,0825.4,5.00,000.00,029.4,028.6,000.0,037.8,031.2,025.5,0003.4,0023.73,0007.15,0005.39
2024-06-16 15:21:00,SystemResetWarning,0825.4,5.00,000.00,029.5,028.7,000.0,037.8,031.2,025.5,0002.9,0022.89,0007.01,0005.26
2024-06-16 15:22:00,SystemResetWarning,0825.4,5.00,000.00,029.6,028.9,000.0,037.9,031.3,025.5,0002.7,0022.59,0006.90,0005.17
2024-06-16 15:23:00,SystemResetWarning,0825.3,5.01,000.00,029.6,029.0,000.0,037.9,031.4,025.5,0002.9,0022.80,0006.84,0005.09
2024-06-16 15:24:00,SystemResetWarning,0825.2,5.00,000.00,029.7,029.1,000.0,037.9,031.5,025.4,0002.9,0022.59,0006.80,0005.04
2024-06-16 15:25:00,SystemResetWarning,0825.3,5.00,000.00,029.7,029.2,000.0,037.9,031.5,025.7,0002.8,0022.75,0006.71,0004.99
2024-06-16 15:26:00,SystemResetWarning,0825.3,5.00,000.00,029.8,029.3,000.0,038.0,031.6,025.5,0002.3,0023.48,0006.64,0004.96
2024-06-16 15:27:00,SystemResetWarning,0825.4,5.00,000.00,029.9,029.4,000.0,038.0,031.7,025.5,0001.8,0022.70,0006.55,0004.94
2024-06-16 15:28:00,SystemResetWarning,0825.5,4.99,000.00,029.9,029.5,000.0,038.0,031.7,025.5,0002.3,0022.76,0006.59,0004.92
2024-06-16 15:29:00,SystemResetWarning,0825.5,5.00,000.00,030.0,029.3,000.0,038.1,031.6,025.6,0002.5,0022.45,0006.60,0004.89
2024-06-16 15:30:00,SystemResetWarning,0825.4,5.01,000.00,029.7,027.2,000.0,038.1,030.7,025.5,0002.6,0023.03,0006.59,0004.87
2024-06-16 15:31:00,SystemResetWarning,0825.3,5.01,000.00,029.3,025.6,000.0,038.1,029.9,026.1,0003.0,0022.40,0006.61,0004.86
2024-06-16 15:32:00,SystemResetWarning,0825.4,5.00,000.00,029.1,026.0,000.0,038.1,030.0,026.1,0003.5,0024.75,0006.64,0004.86
2024-06-16 15:33:00,SystemResetWarning,0825.4,5.00,000.00,029.1,026.5,000.0,037.9,030.2,025.4,0003.4,0025.15,0006.67,0004.84
2024-06-16 15:34:00,SystemResetWarning,0825.4,5.00,000.00,029.1,026.9,000.0,037.8,030.4,025.2,0001.6,0024.84,0006.68,0004.82
2024-06-16 15:35:00,SystemResetWarning,0825.4,5.00,000.00,029.1,027.4,000.0,037.8,030.6,025.3,0001.9,0025.20,0006.68,0004.79
2024-06-16 15:36:00,SystemResetWarning,0825.5,5.00,000.00,029.2,027.7,000.0,037.7,030.8,025.6,0000.0,0026.40,0006.69,0004.76
2024-06-16 15:37:00,SystemResetWarning,0825.6,5.00,000.00,029.2,028.1,000.0,037.7,030.9,025.4,0001.9,0026.97,0006.71,0004.73
2024-06-16 15:38:00,SystemResetWarning,0825.5,5.00,000.00,029.3,028.3,000.0,037.7,031.0,025.6,0002.9,0027.58,0006.80,0004.70
2024-06-16 15:39:00,SystemResetWarning,0825.6,4.99,000.00,029.4,028.5,000.0,037.7,031.1,024.8,0000.0,0029.45,0006.89,0004.66
2024-06-16 15:40:00,SystemResetWarning,0825.6,5.00,000.00,029.4,028.7,000.0,037.7,031.2,024.7,0000.0,0029.32,0006.93,0004.62
2024-06-16 15:41:00,SystemResetWarning,0825.6,5.00,000.00,029.5,028.8,000.0,037.7,031.3,024.6,0000.0,0029.14,0006.96,0004.58
2024-06-16 15:42:00,SystemResetWarning,0825.6,5.00,000.00,029.5,029.0,000.0,037.7,031.3,024.4,0000.0,0028.46,0006.95,0004.53
2024-06-16 15:43:00,SystemResetWarning,0825.6,5.00,000.00,029.6,029.1,000.0,037.8,031.4,024.3,0000.0,0026.68,0006.94,0004.47
2024-06-16 15:44:00,SystemResetWarning,0825.6,5.00,000.00,029.7,029.2,000.0,037.8,031.5,023.9,0000.0,0026.59,0006.89,0004.43
2024-06-16 15:45:00,SystemResetWarning,0825.6,5.00,000.00,029.7,029.3,000.0,037.8,031.5,023.7,0000.0,0028.22,0006.91,0004.40
2024-06-16 15:46:00,SystemResetWarning,0825.7,5.00,000.00,029.8,029.4,000.0,037.9,031.6,023.1,0000.0,0029.51,0006.97,0004.37
2024-06-16 15:47:00,SystemResetWarning,0825.7,5.00,000.00,029.8,029.4,000.0,037.9,031.7,023.0,0000.0,0028.68,0006.98,0004.33
2024-06-16 15:48:00,SystemResetWarning,0825.7,5.00,000.00,029.9,029.4,000.0,038.0,031.7,023.1,0000.0,0030.54,0006.96,0004.30
2024-06-16 15:49:00,SystemResetWarning,0825.6,4.98,000.00,029.8,027.8,000.0,038.0,030.9,023.1,0000.0,0030.69,0006.83,0004.26
2024-06-16 15:50:00,SystemResetWarning,0825.4,5.01,000.00,029.3,025.8,000.0,038.1,030.0,024.0,0000.0,0030.11,0006.72,0004.22
2024-06-16 15:51:00,SystemResetWarning,0825.4,5.01,000.00,029.1,025.9,000.0,038.0,029.9,024.5,0000.0,0030.03,0006.71,0004.20
2024-06-16 15:52:00,SystemResetWarning,0825.5,4.98,000.00,029.0,026.4,000.0,037.9,030.1,024.7,0000.0,0030.58,0006.59,0004.16
2024-06-16 15:53:00,SystemResetWarning,0825.6,5.02,000.00,029.0,026.9,000.0,037.8,030.3,024.6,0000.0,0031.44,0006.50,0004.15
2024-06-16 15:54:00,SystemResetWarning,0825.6,5.01,000.00,029.1,027.3,000.0,037.7,030.5,024.8,0000.0,0031.91,0006.48,0004.16
2024-06-16 15:55:00,SystemResetWarning,0825.6,4.99,000.00,029.1,027.7,000.0,037.7,030.7,023.7,0000.0,0033.51,0006.54,0004.15
2024-06-16 15:56:00,SystemResetWarning,0825.6,5.00,000.00,029.2,028.0,000.0,037.6,030.8,023.5,0000.0,0032.04,0006.52,0004.15
2024-06-16 15:57:00,SystemResetWarning,0825.6,5.00,000.00,029.2,028.2,000.0,037.6,030.9,023.7,0000.0,0032.55,0006.48,0004.14
2024-06-16 15:58:00,SystemResetWarning,0825.6,5.00,000.00,029.3,028.5,000.0,037.6,031.0,023.7,0000.0,0033.31,0006.46,0004.13
2024-06-16 15:59:00,SystemResetWarning,0825.5,5.00,000.00,029.3,028.7,000.0,037.6,031.1,023.6,0000.0,0030.55,0006.51,0004.14
